This demonstration page uses our WeatherBlox Daily Observations layout. Learn more.

Left ArrowRight Arrow

41.86663, -103.66717

Hourly Observations for December 4, 2021

Temp ( °F °C ) Dew Point ( °F °C ) Humidity (%) Winds ( mph kmh ) Pressure ( in mb ) Visibility ( mi km ) Precip ( " mm )
12:53 am 00:53 undefined 33 0.6 23 -5 66 66 ESE 12 19 30.13 1020 10 16 N/A
1:53 am 01:53 Clear 32 undefined 23 -5 69 69 ESE 15 24 30.11 1020 10 16 N/A
2:53 am 02:53 Clear 33 0.6 23 -5 66 66 E 12 19 30.11 1020 10 16 N/A
3:53 am 03:53 Clear 33 0.6 23 -5 66 66 E 10 17 30.09 1019 10 16 N/A
4:53 am 04:53 Clear 31 -0.6 23 -5 72 72 E 8 13 30.12 1020 10 16 N/A
5:53 am 05:53 Clear 28 -2.2 21 -6.1 75 75 ESE 5 7 30.14 1021 10 16 N/A
6:53 am 06:53 Clear 26 -3.3 20 -6.7 78 78 NNE 5 7 30.16 1021 10 16 N/A
7:53 am 07:53 Sunny 28 -2.2 21 -6.1 75 75 N 5 7 30.16 1021 10 16 N/A
8:53 am 08:53 Sunny 32 undefined 23 -5 69 69 N N/A 30.14 1021 10 16 N/A
9:53 am 09:53 Sunny 37 2.8 25 -3.9 62 62 N N/A 30.10 1019 10 16 N/A
10:53 am 10:53 Sunny 43 6.1 27 -2.8 53 53 VRB 3 6 30.05 1018 10 16 N/A
11:53 am 11:53 Sunny 48 8.9 28 -2.2 46 46 ESE 6 9 29.99 1016 10 16 N/A
12:53 pm 12:53 Sunny 54 12.2 30 -1.1 40 40 ESE 5 7 29.94 1014 10 16 N/A
1:53 pm 13:53 Sunny 56 13.3 31 -0.6 39 39 E 6 9 29.90 1013 10 16 N/A
2:53 pm 14:53 Sunny 56 13.3 32 undefined 40 40 SW 6 9 29.86 1011 10 16 N/A
3:53 pm 15:53 Sunny 53 11.7 31 -0.6 43 43 N N/A 29.85 1011 10 16 N/A
4:53 pm 16:53 Clear 46 7.8 30 -1.1 54 54 N N/A 29.85 1011 10 16 N/A
5:53 pm 17:53 Clear 42 5.6 29 -1.7 60 60 undefined N/A 29.85 1011 10 16 N/A
6:53 pm 18:53 Clear 43 6.1 29 -1.7 58 58 NNE 14 22 29.83 1010 10 16 N/A
7:53 pm 19:53 Clear 42 5.6 27 -2.8 55 55 ENE 8 13 29.82 1010 10 16 N/A
8:53 pm 20:53 Clear 50 10 20 -6.7 30 30 WSW 9 15 29.78 1008 10 16 N/A
9:53 pm 21:53 Clear 53 11.7 17 -8.3 24 24 SW 8 13 29.74 1007 10 16 N/A
10:53 pm 22:53 undefined 52 11.1 16 -8.9 24 24 SW 3 6 29.72 1006 10 16 N/A
11:53 pm 23:53 Clear 56 13.3 17 -8.3 22 22 W 8 13 29.67 1005 10 16 N/A

Powered by AerisWeather